Flag for Canada Weather past 2 weeks in Fort Smith, Northwest Territories, Canada

-4 °F

Passing clouds.

Feels Like: -12 °F
Forecast: -3 / 7 °F
Wind: 3 mph from South

Location: Fort Smith

Current Time: Nov 25, 2015 at 7:44:03 AM

Latest Report: Nov 25, 2015 at 7:00 AM

Visibility: 15 mi

Pressure: 30.26 "Hg

Humidity: 77%

Dew point: -9 °F

Location of Fort SmithLocation

Historic Weather in Fort Smith — Graph


Fort Smith temperature yesterday

Maximum temperature yesterday: 9 °F (at 1:00 AM)
Minimum temperature yesterday: 1 °F (at 4:00 AM)
Average temperature yesterday: 5 °F

Past Weeks' High & Low Weather Summary

High37 °F (Nov 11, 9:00 AM)100% (Nov 15, 12:00 PM)30.38 "Hg (Nov 15, 12:00 PM)
Low-4 °F (Nov 25, 5:00 AM)51% (Nov 11, 5:00 PM)29.12 "Hg (Nov 13, 7:00 AM)
Average17 °F85%29.75 "Hg
* Reported Nov 10 6:00 AM — Nov 25 6:00 AM, Fort Smith, Weather by CustomWeather, © 2015

Note: Actual official high and low records may vary slightly from our data, if they occured in-between our weather recording intervals... More about our weather records


Fort Smith weather history for previous 24 hours

Time TempWeatherWind HumidityBarometerVisibility
6:00 AM
Wed, Nov 25
-4 °FPassing clouds.7 mph84%30.25 "Hg15 mi
5:00 AM-4 °FPassing clouds.3 mph84%30.26 "Hg15 mi
4:00 AM0 °FPassing clouds.6 mph84%30.26 "Hg15 mi
3:00 AM1 °FPassing clouds.6 mph85%30.26 "Hg15 mi
2:00 AM1 °FPassing clouds.5 mph85%30.28 "Hg15 mi
1:00 AM3 °FPassing clouds.6 mph85%30.28 "Hg15 mi
12:00 AM5 °FSnow flurries. Passing clouds.5 mph85%30.28 "Hg15 mi
11:00 PM
Tue, Nov 24
5 °FSnow flurries. Low clouds.8 mph85%30.30 "Hg15 mi
10:50 PM5 °FSnow flurries. Low clouds.8 mph85%30.31 "Hg15 mi
10:00 PM3 °FLight snow. Passing clouds.6 mph85%30.31 "Hg15 mi
9:00 PM3 °FLight snow. Overcast.5 mph85%30.34 "Hg15 mi
8:00 PM5 °FLight snow. Overcast.6 mph92%30.34 "Hg15 mi
7:00 PM5 °FLight snow. Passing clouds.3 mph92%30.33 "Hg15 mi
6:00 PM3 °FLight snow. Passing clouds.2 mph92%30.35 "Hg15 mi
5:00 PM7 °FLight snow. Passing clouds.2 mph85%30.35 "Hg12 mi
4:00 PM9 °FLight snow. Passing clouds.2 mph85%30.36 "Hg12 mi
3:00 PM9 °FLight snow. Partly sunny.3 mph85%30.37 "Hg12 mi
2:00 PM9 °FLight snow. Partly sunny.6 mph85%30.37 "Hg12 mi
1:00 PM9 °FLight snow. Partly sunny.6 mph85%30.38 "Hg6 mi
12:00 PM7 °FLight snow. Partly sunny.5 mph85%30.38 "Hg12 mi
11:00 AM5 °FLight snow. Overcast.5 mph85%30.38 "Hg6 mi
10:00 AM3 °FLight snow. Partly sunny.5 mph92%30.38 "Hg6 mi
9:00 AM3 °FLight snow. Overcast.6 mph85%30.38 "Hg10 mi
8:00 AM3 °FLight snow. Passing clouds.6 mph85%30.38 "Hg12 mi
7:00 AM1 °FLight snow. Mostly cloudy.6 mph92%30.37 "Hg12 mi
Weather by CustomWeather, © 2015

See weather overviewHow to use our weather pages